Torna al catalogo

STARLINK-5296

AttivoComunicazioniVLEO
NORAD 55312·PAYLOAD·🇺🇸 United States

Lanciato Jan 19, 2023 da Vandenberg Space Force Base

Loading…

Prossimi Passaggi (prossime 24 ore)

TLE

AggiornatoSource: CelesTrak SupGP

Epoca: Sep 15, 2026, 01:36 UTC

1 55312C 23010AV  26258.06715278 -.00036933  00000+0 -30947-2 0  2589
2 55312  70.0007 246.7841 0003570 265.0669 355.1399 14.98353430    19

Traccia STARLINK-5296 in tempo reale con AllMySat

Download on the App Store